Regional Weather Roundup
Issued by NWS

Home | Current Version | Previous Version | Text Only | Print | Product List | Glossary Off
Versions: 1 2 3 4 5 6 7 8 9 10 11 12 13 14 15 16 17 18 19 20 21 22 23 24 25 26 27

000
ASUS45 KPSR 242110
RWRAZ

ARIZONA HOURLY REGIONAL WEATHER ROUNDUP
NATIONAL WEATHER SERVICE PHOENIX AZ
200 PM MST SUN SEP 24 2017

NOTE: FAIR INDICATES FEW OR NO CLOUDS BELOW 12,000 FEET WITH NO
SIGNIFICANT WEATHER AND/OR OBSTRUCTIONS TO VISIBILITY.

AZZ001>003-036-242200-
NORTHWEST ARIZONA

CITY           SKY/WX    TMP DP  RH WIND       PRES   REMARKS
BULLHEAD CITY  SUNNY     79  28  15 N21       29.89F
KINGMAN        SUNNY     69  25  19 N8        29.98F
$$

AZZ004>008-015-016-018-242200-
NORTH CENTRAL ARIZONA

CITY           SKY/WX    TMP DP  RH WIND       PRES   REMARKS
GRAND CANYON   SUNNY     56  15  20 W7        30.03S
WILLIAMS       SUNNY     57   1  10 NW9       30.03S
PRESCOTT       SUNNY     66  12  12 MISG      29.97F
FLAGSTAFF      SUNNY     59   4  11 VRB7      30.02S
PAYSON           N/A     66   7   9 NW9       29.96F
PAGE           SUNNY     64  25  22 VRB7      29.95F
$$

AZZ009>014-017-242200-
NORTHEAST ARIZONA

CITY           SKY/WX    TMP DP  RH WIND       PRES   REMARKS
WINSLOW        SUNNY     69  19  15 VRB7G20   29.95F
SAINT JOHNS    SUNNY     70  13  11 W18G26    29.92F
WINDOW ROCK    SUNNY     63  17  17 W12G24    30.00F
SHOW LOW       SUNNY     64  21  19 SW15      30.00S
$$

AZZ540-542>544-546-548-242200-
GREATER PHOENIX AREA

CITY           SKY/WX    TMP DP  RH WIND       PRES   REMARKS
PHOENIX        SUNNY     84  21  10 W13       29.78F
BUCKEYE        SUNNY     84  12   6 W7G18     29.80F
GLENDALE       SUNNY     82  18   9 CALM      29.81F
LUKE AFB       SUNNY     83  18   9 W3        29.78F
DEER VALLEY    SUNNY     83  14   7 MISG      29.79F
SCOTTSDALE     SUNNY     83  20   9 SW8       29.81F
MESA-FALCON    SUNNY     81  27  13 W12       29.81
MESA-GATEWAY   SUNNY     82  27  13 SW6       29.81F
CHANDLER       SUNNY     82  23  11 S8        29.79F
$$

AZZ539-553-242200-
SOUTHWEST MARICOPA COUNTY AND PINAL COUNTY

CITY           SKY/WX    TMP DP  RH WIND       PRES   REMARKS
CASA GRANDE    NOT AVBL
GILA BEND      FAIR      83  13   7 W10       29.79S
$$

AZZ503-504-507>509-242200-
SOUTHEAST ARIZONA

CITY           SKY/WX    TMP DP  RH WIND       PRES   REMARKS
TUCSON         SUNNY     83  31  15 N7        29.84F
DAVIS-MONTHAN  SUNNY     83  30  15 N14       29.82F
RYAN FIELD     SUNNY     81  28  15 MISG      29.84F
NOGALES        SUNNY     82  37  20 MISG      29.87F
SIERRA VISTA   SUNNY     80  34  18 SE3       29.90F
DOUGLAS        MOSUNNY   81  38  21 VRB7      29.84F
SAFFORD        SUNNY     83  31  15 VRB6      29.81F
$$

AZZ532-242200-
SOUTHWEST ARIZONA

CITY           SKY/WX    TMP DP  RH WIND       PRES   REMARKS
YUMA           SUNNY     87  27  11 N12G17    29.81F
$$

CAZ041-043-047-048-061-525>527-560>570-242200-
SOUTHERN CALIFORNIA

CITY           SKY/WX    TMP DP  RH WIND       PRES   REMARKS
DOWNTOWN L.A.  SUNNY     85  47  26 W5        29.84F
L.A. AIRPORT   SUNNY     76  55  48 W14       29.86F
SAN DIEGO      SUNNY     77  54  44 NW14      29.85F
BURBANK        SUNNY     83  26  12 CALM      29.85F
ONTARIO        MOSUNNY   83  22  10 SW9       29.86F
RIVERSIDE      SUNNY     84  27  12 VRB3      29.86F
PALM SPRINGS   SUNNY     87  22   9 VRB5      29.86F
EL CENTRO NAS  SUNNY     86  20   9 NW10G17   29.85F
IMPERIAL       SUNNY     86  31  13 NW8       29.83F
BLYTHE         SUNNY     84  25  11 N13G26    29.85F
NEEDLES        SUNNY     83  22  10 N18G28    29.90F
$$

NVZ020-UTZ003-242200-
SOUTHERN NEVADA-UTAH

CITY           SKY/WX    TMP DP  RH WIND       PRES   REMARKS
LAS VEGAS      SUNNY     72  26  18 NE9       29.96F
SALT LAKE CITY RAIN      45  43  93 S7        30.03R FOG
$$

NMZ009-TXZ055-242200-
NEW MEXICO-WEST TEXAS

CITY           SKY/WX    TMP DP  RH WIND       PRES   REMARKS
ALBUQUERQUE    SUNNY     72  23  16 S9        29.92F
EL PASO        MOSUNNY   85  41  21 VRB6      29.83F
$$


........................KEY........................
SKY/WX - SKY CONDITION/WEATHER
TMP    - TEMPERATURE IN FAHRENHEIT
DP     - DEW POINT IN FAHRENHEIT
RH     - RELATIVE HUMIDITY IN PERCENT
WIND   - DIRECTION AND SPEED IN MILES PER HOUR (MPH)
VRB    - VARIABLE WIND DIRECTION
PRES   - MEAN SEA LEVEL PRESSURE IN INCHES OF MERCURY
         F - FALLING PRESSURE   R - RISING PRESSURE
         S - STEADY PRESSURE
VSB    - VISIBILITY IN MILES
HX     - HEAT INDEX IN FAHRENHEIT
WCI    - WIND CHILL INDEX IN FAHRENHEIT
TC     - TEMPERATURE IN CELSIUS WHICH IS ALSO KNOWN AS
         TEMPERATURE IN CENTIGRADE
AFB    - AIR FORCE BASE
         LUKE AFB IS LUKE AIR FORCE BASE
         DAVIS-MONTHAN IS DAVIS-MONTHAN AIR FORCE BASE
NAS    - NAVAL AIR STATION
         EL CENTRO NAS IS EL CENTRO NAVAL AIR STATION
N/A    - NOT AVAILABLE





USA.gov is the U.S. government's official web portal to all federal, state and local government web resources and services.